Location: Downe
(51.3167°N, 0.0500°E)
Time: 05:37:54
(UTC+00:00)

ALOS - Pass Details

Date: 17 November 2019
Orbit: 683 x 686 km, 97.8° (Epoch: 07 December)

Event Time Altitude Azimuth Distance (km) Brightness Sun altitude
Rises 04:57:23 0° 19° (NNE) 3,061 5.8 -22.0°
Reaches altitude 10° 04:59:46 10° 27° (NNE) 2,141 5.1 -21.6°
Maximum altitude 05:04:10 39° 97° (E) 1,024 3.7 -20.9°
Drops below altitude 10° 05:08:32 10° 166° (SSE) 2,125 5.0 -20.2°
Sets 05:10:53 0° 174° (S) 3,036 5.7 -19.9°
